DMSP 5D-2 F13 DEB, 40471

Orbit data source: Space-Track

DMSP 5D-2 F13 DEB, 40471 is space debris in SSO originally from a launch on Fri, 24 Mar 1995 UTC launched from the Air Force Western Test Range (AFWTR). Debris objects in space refer to the collection of defunct objects orbiting the Earth. Examples of debris include non-operational satellites, rocket bodies, and fragments generated from explosions, collisions, or faulty payload assembly.

Loading next visibility...
Identifier
40471, 1995-015BP
Orbit
SSO
Country
Flag of USUS
Related business
Manufacturer
Unknown
Mission
Spacecraft
Bus & Motor
Unknown
Mass
Unknown
Launch date (UTC)
1995-03-24 (31 years ago)
Launch vehicle
Unknown
Launch site
Air Force Western Test Range (AFWTR)
Object type
Payload
Rocket body
Debris
Shape & HBR
Unknown shape, 0.1 m
Radar Cross Section
Medium (>0.1 m² and <1 m²)

Expand to show TLE details & history
Last TLE update: 3 days ago

TLE from 3 days ago
0 DMSP 5D-2 F13 DEB
1 40471U 95015BP  26170.35896840  .00002539  00000-0  10189-2 0  9995
2 40471  98.8798 199.9423 0018298 315.9986  43.9738 14.29043016582530
Epoch: 2026-06-19T08:36Z
TLE epoch observation values (Epoch: 2026-06-19T08:36:54.869Z)
Latitude
Longitude
163.1246°
Altitude
788.417 km
Speed
7.464 km/s
True Right ascension
13h 19m 46s
True Declination
0° 00' 00"
Sunlit
Object was in daylight at epoch
Visualization orbit readout
Latitude
Unknown
Longitude
Unknown
Altitude
Unknown
Speed
Unknown
Apparent Right ascension
Unknown
Apparent Declination
Unknown
Sunlit
N/A
Visualization observer readout
Local Sidereal Time
21:43:07
Azimuth
Unknown
Elevation
Unknown
Doppler factor
Unknown
Orbital elements
Apogee altitude
805.206 km
Perigee altitude
778.966 km
Semi-major axis
7,170.223 km
Eccentricity
0.00183
Inclination
98.8798°
RAAN
199.9423°
Arg. of periapsis
315.9986°
True anomaly
44.11963°
Mean anomaly
43.9738°
Eccentric anomaly
44.04669°
Mean motion
3.57474 °/min
Orbital period
100.71 mins
BSTAR
0.0010189

Documentation

Showing up to 5 results
|